[[{"header":{"parameterUnit":"m.s-1","parameterCategory":1,"la1":30.2991,"la2":30.254,"lo1":-89.0895,"lo2":-89.0444,"dy":0.0017,"dx":0.0017,"nx":28,"ny":28,"refTime":"2025-07-10T21:00:00:Z","depth":0,"parameterNumber":2,"parameterNumberName":"U-component_of_WINDS"},"data":[0,0,0,0,0,0,0,0,0,0,0,0,0,0,0,0,0,0,0,0,0,0,0,0,0,0,0,0,0,0,0,0,0,0,0,0,0,0,0,0,0,0,0,0,0,0,0,0,0,0,0,0,0,0,0,0,0,0,3.1696,3.1696,0,3.1698,3.1698,3.1698,3.1654,3.1653,3.1652,3.1651,3.1652,3.1653,3.1654,0,0,0,0,0,0,0,0,0,0,0,0,0,3.1656,3.1657,3.1696,3.1696,3.1696,3.1698,3.1698,3.1698,3.1654,3.1653,3.1651,3.165,3.1651,3.1652,3.1654,0,0,0,0,0,0,0,0,0,0,0,0,0,3.1667,3.1657,3.1696,3.1675,3.1673,3.1698,3.1698,3.1698,3.1655,3.1653,3.1651,3.1649,3.1651,3.1652,3.1654,3.1699,0,0,3.1659,3.166,0,0,0,0,0,0,0,0,3.1667,3.1669,3.1678,3.1676,3.1674,3.1674,3.1684,3.1698,3.1655,3.1662,3.1651,3.1649,3.166,3.1661,3.1665,3.1699,3.1699,3.1659,3.166,3.1661,3.1661,0,0,0,0,0,0,0,3.1666,3.1668,3.1697,3.1678,3.1676,3.1665,3.1665,3.1686,3.1671,3.1661,3.1658,3.1658,3.1659,3.1664,3.1665,3.1699,3.1659,3.1661,3.1662,3.1662,3.1773,3.1775,0,0,0,0,0,0,3.1668,3.1668,3.1697,3.1697,3.1666,3.1667,3.1667,3.1676,3.167,3.1668,3.166,3.1656,3.1662,3.1663,3.1665,3.1719,3.1661,3.1663,3.1663,3.1771,3.1773,3.1775,0,0,0,0,0,0,3.1667,3.1671,3.1697,3.1682,3.1684,3.167,3.168,3.1677,3.1681,3.167,3.1667,3.1668,3.166,3.1662,3.1692,3.1718,3.1663,3.1665,3.1769,3.1772,3.1774,3.1827,0,0,0,0,0,0,3.1666,3.1671,3.1688,3.1682,3.1685,3.1724,3.1682,3.1678,3.1685,3.168,3.1676,3.1674,3.1659,3.1689,3.1693,3.172,3.1666,3.1766,3.177,3.1773,3.1823,3.1831,3.1839,0,0,0,0,0,3.1665,3.1702,3.1689,3.1693,3.1706,3.1725,3.1727,3.1709,3.1687,3.1704,3.1697,3.1674,3.1715,3.1693,3.1697,3.1724,3.1764,3.1769,3.1773,3.1819,3.183,3.1838,0,0,0,0,0,0,3.171,3.1701,3.1686,3.1723,3.1725,3.1718,3.1739,3.1721,3.1729,3.1725,3.1702,3.1702,3.1735,3.1732,3.1708,3.1769,3.1736,3.1741,3.1769,3.1779,3.1787,3.1787,3.1667,0,0,0,0,0,3.1725,3.1741,3.1732,3.1765,3.1767,3.1753,3.1761,3.1747,3.1749,3.1749,3.1744,3.1747,3.176,3.1769,3.1781,3.1822,3.1821,3.1843,3.1851,3.1857,3.1863,3.1886,3.1896,3.179,3.179,3.1789,0,0,3.1755,3.1751,3.1763,3.1774,3.1775,3.1793,3.1754,3.1774,3.1788,3.1752,3.178,3.1776,3.1778,3.1814,3.1829,3.1812,3.1892,3.1863,3.1868,3.187,3.1891,3.1901,3.191,3.1793,3.1792,3.1792,0,0,3.1818,3.1817,3.1845,3.1847,3.1848,3.1839,3.1846,3.1841,3.1838,3.1865,3.184,3.1855,3.1878,3.1881,3.1885,3.1951,3.1931,3.1956,3.1997,3.202,3.2029,3.2036,3.2061,3.207,3.1961,3.1961,3.1961,0,3.1855,3.1881,3.1862,3.1885,3.1891,3.186,3.1889,3.1892,3.1897,3.1902,3.1883,3.1912,3.1911,3.1948,3.1964,3.1968,3.1976,3.1956,3.2029,3.2036,3.2043,3.2066,3.2076,3.1964,3.1963,3.1963,3.1963,0,3.1927,3.1945,3.1968,3.1975,3.1983,3.2009,3.1994,3.2005,3.1991,3.1984,3.2013,3.2011,3.2022,3.2029,3.2015,3.2065,3.2055,3.2033,3.1999,3.2056,3.2078,3.2087,3.1968,3.1967,3.1966,3.1965,0,0,3.2019,3.2016,3.2024,3.2028,3.2028,3.2042,3.2067,3.2078,3.2089,3.2093,3.2114,3.2135,3.2115,3.212,3.2106,3.2127,3.2181,3.2102,3.2102,3.2118,3.2237,3.2255,3.2265,3.2168,3.2169,3.217,3.2238,0,3.2081,3.2124,3.2108,3.2152,3.217,3.2142,3.2163,3.2166,3.216,3.2174,3.2167,3.2184,3.2155,3.2158,3.2177,3.2171,3.2205,3.2165,3.2187,3.2188,3.2189,3.2276,3.2295,3.2358,3.2246,3.2247,3.2248,0,3.216,3.217,3.2215,3.2214,3.2221,3.2241,3.2251,3.2265,3.2267,3.2262,3.2268,3.2251,3.2275,3.2241,3.2276,3.2249,3.2257,3.2256,3.2258,3.226,3.2223,3.2282,3.2378,3.2388,3.2261,3.226,3.2259,0,3.2225,3.2248,3.2279,3.2283,3.2281,3.2296,3.2296,3.2297,3.2306,3.2315,3.232,3.2332,3.2338,3.2348,3.2334,3.231,3.2371,3.2335,3.2367,3.2368,3.2382,3.2381,3.2481,3.2385,3.2385,3.2385,3.2385,0,3.2297,3.2327,3.2308,3.2328,3.236,3.2342,3.2375,3.2371,3.2373,3.2391,3.2367,3.2385,3.2365,3.2381,3.237,3.2401,3.2403,3.24,3.2397,3.2403,3.2404,3.2409,3.2404,3.2387,3.2387,3.2386,3.2386,0,3.2375,3.2363,3.2396,3.2392,3.2392,3.2417,3.2414,3.2431,3.2424,3.2448,3.2452,3.2441,3.2459,3.2446,3.2463,3.2456,3.2497,3.2487,3.2496,3.2494,3.2527,3.2525,3.2635,3.2649,3.2543,3.2544,3.2545,0,3.2422,3.2444,3.2444,3.2455,3.2457,3.2475,3.2484,3.2467,3.2477,3.2483,3.25,3.2516,3.2528,3.2558,3.2551,3.2565,3.2556,3.2593,3.2557,3.2563,3.2558,3.2557,3.256,3.2601,3.2602,3.2603,3.2604,0,3.2508,3.2502,3.2516,3.2529,3.2541,3.255,3.2557,3.2568,3.2551,3.2564,3.2582,3.2591,3.261,3.2626,3.2637,3.2637,3.2618,3.2615,3.2623,3.263,3.2635,3.2634,3.2517,3.2613,3.2612,3.2611,3.2611,3.261,3.2573,3.2592,3.2596,3.2613,3.2617,3.2624,3.2641,3.2637,3.2652,3.2666,3.2655,3.2677,3.2681,3.2694,3.2697,3.2714,3.2699,3.271,3.2713,3.2717,3.2722,3.2632,3.2716,3.2715,3.2715,3.2715,3.2715,0,3.2659,3.266,3.2676,3.2688,3.2702,3.2683,3.269,3.2703,3.2723,3.2728,3.274,3.2762,3.2778,3.2774,3.2788,3.2803,3.2795,3.2808,3.2807,3.2807,3.2735,3.2727,3.2814,3.2814,3.2814,3.2814,3.2814,3.2814,3.2706,3.2738,3.2732,3.2766,3.2767,3.2789,3.2795,3.2803,3.2807,3.2832,3.2846,3.2843,3.2844,3.2859,3.2873,3.2871,3.2878,3.2895,3.289,3.2822,3.2812,3.2803,3.2795,3.2896,3.2896,3.2961,3.2962,3.2962]},{"header":{"parameterUnit":"m.s-1","parameterCategory":1,"la1":30.2991,"la2":30.254,"lo1":-89.0895,"lo2":-89.0444,"dy":0.0017,"dx":0.0017,"nx":28,"ny":28,"refTime":"2025-07-10T21:00:00:Z","depth":0,"parameterNumber":3,"parameterNumberName":"V-component_of_WINDS"},"data":[0,0,0,0,0,0,0,0,0,0,0,0,0,0,0,0,0,0,0,0,0,0,0,0,0,0,0,0,0,0,0,0,0,0,0,0,0,0,0,0,0,0,0,0,0,0,0,0,0,0,0,0,0,0,0,0,0,0,0.2188,0.2188,0,0.2176,0.2175,0.2175,0.218,0.218,0.2181,0.2181,0.2168,0.2167,0.2166,0,0,0,0,0,0,0,0,0,0,0,0,0,0.2215,0.2214,0.2188,0.2188,0.2188,0.2176,0.2175,0.2175,0.218,0.218,0.2181,0.2181,0.2168,0.2167,0.2166,0,0,0,0,0,0,0,0,0,0,0,0,0,0.2203,0.2214,0.2188,0.2189,0.2189,0.2176,0.2175,0.2175,0.218,0.218,0.2181,0.2181,0.2168,0.2167,0.2166,0.2152,0,0,0.2163,0.2163,0,0,0,0,0,0,0,0,0.2203,0.2202,0.2189,0.2189,0.2189,0.218,0.218,0.2167,0.218,0.2183,0.2181,0.2181,0.2171,0.217,0.2167,0.2151,0.2151,0.2163,0.2163,0.2162,0.2162,0,0,0,0,0,0,0,0.2204,0.2202,0.2183,0.2189,0.2188,0.2189,0.2188,0.2178,0.2175,0.2183,0.2183,0.2182,0.2171,0.2168,0.2167,0.2151,0.2163,0.2163,0.2162,0.2162,0.2121,0.212,0,0,0,0,0,0,0.2205,0.2203,0.2184,0.2183,0.2197,0.2188,0.2187,0.2182,0.2175,0.2174,0.2181,0.2182,0.2169,0.2168,0.2166,0.2148,0.2162,0.2162,0.2161,0.2121,0.2121,0.212,0,0,0,0,0,0,0.2206,0.2203,0.2184,0.2193,0.2191,0.2187,0.2182,0.2182,0.2178,0.2174,0.2173,0.2178,0.2169,0.2167,0.2155,0.2148,0.2161,0.216,0.2122,0.2121,0.212,0.2112,0,0,0,0,0,0,0.2207,0.2204,0.2199,0.2193,0.219,0.2174,0.2182,0.2181,0.2177,0.2177,0.2171,0.217,0.217,0.2156,0.2154,0.2147,0.216,0.2123,0.2122,0.2121,0.2113,0.2111,0.2109,0,0,0,0,0,0.2207,0.2197,0.2198,0.2196,0.2184,0.2173,0.2172,0.2171,0.2176,0.217,0.2167,0.217,0.2149,0.2155,0.2153,0.2145,0.2123,0.2122,0.2121,0.2114,0.2111,0.2109,0,0,0,0,0,0,0.2202,0.2196,0.2198,0.2185,0.218,0.2174,0.2167,0.2169,0.2162,0.2163,0.2163,0.2161,0.2148,0.2145,0.2152,0.2129,0.2137,0.2135,0.2132,0.213,0.2128,0.2129,0.2159,0,0,0,0,0,0.22,0.2192,0.2187,0.2176,0.2173,0.2171,0.2166,0.2166,0.216,0.2158,0.2154,0.2148,0.214,0.2135,0.2127,0.2112,0.211,0.2105,0.2104,0.2102,0.2101,0.2091,0.2089,0.2116,0.2116,0.2116,0,0,0.2194,0.219,0.2185,0.2175,0.2171,0.2162,0.2169,0.216,0.2153,0.2157,0.2145,0.2142,0.2135,0.2121,0.2114,0.2118,0.2092,0.2101,0.2099,0.2099,0.209,0.2087,0.2085,0.2115,0.2116,0.2116,0,0,0.218,0.2176,0.2167,0.2162,0.2155,0.2153,0.2151,0.2144,0.2142,0.213,0.2132,0.2124,0.211,0.2105,0.21,0.2082,0.2084,0.2079,0.207,0.2061,0.2059,0.2057,0.2049,0.2047,0.2078,0.2078,0.2078,0,0.2174,0.2162,0.2161,0.2152,0.2147,0.2149,0.2138,0.2134,0.2125,0.2121,0.2125,0.2106,0.2102,0.2086,0.2081,0.2078,0.2074,0.208,0.2059,0.2057,0.2055,0.2048,0.2046,0.2077,0.2077,0.2077,0.2077,0,0.2155,0.2146,0.2138,0.2129,0.2123,0.2113,0.2111,0.2105,0.2104,0.2102,0.2088,0.2083,0.2074,0.207,0.207,0.2054,0.2056,0.2059,0.2066,0.2052,0.2045,0.2043,0.2076,0.2077,0.2077,0.2077,0,0,0.2138,0.2127,0.2125,0.212,0.2112,0.2105,0.2094,0.2085,0.2079,0.2072,0.2063,0.205,0.2053,0.2048,0.2047,0.2039,0.2024,0.2043,0.2043,0.2039,0.2004,0.2001,0.1998,0.2025,0.2024,0.2024,0.2004,0,0.2123,0.2104,0.2103,0.2086,0.2077,0.2078,0.2069,0.2063,0.2059,0.2051,0.2047,0.2038,0.2043,0.2039,0.2031,0.2027,0.2016,0.2029,0.2015,0.2015,0.2017,0.1995,0.1992,0.1974,0.2002,0.2001,0.2001,0,0.2103,0.2095,0.2077,0.2069,0.2065,0.2057,0.2047,0.2039,0.2032,0.203,0.2023,0.2023,0.2011,0.2018,0.2001,0.201,0.2004,0.2001,0.2,0.1999,0.2007,0.1993,0.1969,0.1966,0.1997,0.1997,0.1998,0,0.2091,0.2076,0.2064,0.206,0.205,0.2044,0.2039,0.2032,0.2026,0.2017,0.2013,0.2003,0.1998,0.199,0.1987,0.1992,0.1969,0.1977,0.1967,0.1967,0.1962,0.1963,0.1937,0.1959,0.1959,0.1959,0.1959,0,0.2074,0.2064,0.2058,0.205,0.2038,0.2035,0.2023,0.2018,0.2011,0.2002,0.2002,0.1994,0.199,0.1981,0.1978,0.1964,0.1961,0.1959,0.1959,0.1959,0.1959,0.1955,0.1956,0.1958,0.1959,0.1959,0.1959,0,0.206,0.2056,0.2042,0.2034,0.2031,0.2022,0.2014,0.2006,0.2003,0.1991,0.1988,0.1982,0.1971,0.1966,0.1953,0.1951,0.1934,0.1935,0.1937,0.1937,0.1927,0.1928,0.1898,0.1893,0.1918,0.1918,0.1918,0,0.205,0.2041,0.2031,0.2025,0.202,0.201,0.2004,0.2001,0.1994,0.1983,0.1976,0.1964,0.1955,0.1937,0.1931,0.192,0.192,0.191,0.1918,0.1919,0.1919,0.192,0.1918,0.1908,0.1908,0.1908,0.1908,0,0.2031,0.2029,0.202,0.2009,0.2002,0.1993,0.1985,0.198,0.1975,0.1967,0.1955,0.1948,0.1933,0.1922,0.191,0.1905,0.1905,0.1905,0.1902,0.1903,0.1904,0.1902,0.1932,0.1906,0.1906,0.1906,0.1906,0.1906,0.2018,0.201,0.2001,0.1991,0.1984,0.1976,0.1968,0.1962,0.1953,0.194,0.1939,0.1926,0.1916,0.1901,0.1895,0.1884,0.1887,0.1883,0.1882,0.1881,0.188,0.1906,0.1882,0.1882,0.1882,0.1882,0.1882,0,0.1999,0.1993,0.1983,0.1972,0.1963,0.1964,0.1954,0.1947,0.1935,0.1927,0.1917,0.1903,0.1891,0.1883,0.1871,0.1864,0.1864,0.1861,0.1861,0.186,0.1878,0.1882,0.1861,0.1861,0.1861,0.1861,0.1861,0.1861,0.1988,0.1974,0.1971,0.1953,0.1948,0.1935,0.1929,0.1921,0.1914,0.1898,0.1888,0.1883,0.1875,0.1862,0.1851,0.1849,0.1844,0.1841,0.1839,0.1857,0.1859,0.1861,0.1864,0.184,0.184,0.1821,0.1821,0.1821]}]]